• Join FlightAware (Why Join?)
  • Login
  • US Flag 
12:21AM EDT


 

Airport Tracker/Info


-or-


 

Live Flight TrackerFlight Track Log ✈ UAL4336 ✈ 26-Apr-2013 ✈ KIAH - KBTR

Flight Track Log - Related Links

Times and Time Zones

All times are in EDT time to prevent confusion due to time zone crossing. See the UAL4336 flight status page for this flight to view local times or setup timezone preferences in your user account.

Time Position Orientation Groundspeed Altitude Reporting Facility
EDT Latitude Longitude Course Direction KTS MPH feet Rate Location/Type
10:36AM 29.9658 -95.3431 90° East 146 168 700  Level Houston Center
10:37AM 29.9506 -95.2894 108° East 202 232 2,600 1,740 Climbing Houston Center
10:38AM 29.9461 -95.2444 96° East 214 246 3,700 1,260 Climbing Houston Center
10:38AM 29.9464 -95.2225 89° East 257 296 3,800 360 Climbing Houston Center
10:39AM 29.9511 -95.1625 85° East 247 284 4,100 1,380 Climbing Houston Center
10:40AM 29.9834 -94.8853 90° East  Level FlightAware Approximate
10:40AM 29.9558 -95.0767 86° East 264 304 6,400  Level Houston Center
10:41AM 29.9834 -94.7733 90° East  Level FlightAware Approximate
10:41AM 29.9647 -94.9872 83° East 277 319 8,800  Level Houston Center
10:42AM 29.9722 -94.8914 85° East 297 342 10,400 1,260 Climbing Houston Center
10:43AM 29.9772 -94.7592 87° East 346 398 11,500 960 Climbing Houston Center
10:44AM 29.9856 -94.6378 85° East 382 440 12,400 900 Climbing Houston Center
10:45AM 29.9992 -94.5122 83° East 394 453 13,400 900 Climbing Houston Center
10:46AM 30.0114 -94.3956 83° East 397 457 14,300 960 Climbing Houston Center
10:47AM 30.0272 -94.2442 83° East 398 458 15,500 1,020 Climbing Houston Center
10:48AM 30.0417 -94.1167 83° East 401 461 16,500 1,020 Climbing Houston Center
10:49AM 30.0539 -93.9900 84° East 400 460 17,700 1,200 Climbing Houston Center
10:50AM 30.0667 -93.8669 83° East 391 450 19,100 1,380 Climbing Houston Center
10:51AM 30.0783 -93.7439 84° East 390 449 20,600 1,500 Climbing Houston Center
10:52AM 30.0936 -93.5947 83° East 395 455 22,300 1,140 Climbing Houston Center
10:53AM 30.1058 -93.4678 84° East 402 463 23,000 300 Climbing Houston Center
10:54AM 30.1186 -93.3319 84° East 430 495 23,000  Level Houston Center
10:55AM 30.1319 -93.1894 84° East 448 516 23,000  Level Houston Center
10:56AM 30.1575 -93.0186 80° East 453 521 23,000  Level Houston Center
10:57AM 30.1856 -92.8783 77° East 453 521 23,000  Level Houston Center
10:58AM 30.2131 -92.7358 77° East 455 524 23,000  Level Houston Center
10:59AM 30.2397 -92.5939 78° East 456 525 23,000 -300 Level Houston Center
11:00AM 30.2694 -92.4533 76° East 452 520 22,400 -1,020 Descending Houston Center
11:01AM 30.2950 -92.3106 78° East 444 511 20,900 -1,740 Descending Houston Center
11:02AM 30.3264 -92.1464 77° East 437 503 18,800 -1,860 Descending Houston Center
11:04AM 30.3508 -92.0158 78° East 423 487 17,100 -2,100 Descending Houston Center
11:05AM 30.3747 -91.8897 78° East 409 471 14,500 -2,580 Descending Houston Center
11:06AM 30.4028 -91.7725 74° East 386 444 11,800 -1,980 Descending Houston Center
11:07AM 30.4389 -91.6708 68° East 352 405 10,500 -1,500 Descending Houston Center
11:08AM 30.4681 -91.5786 70° East 315 362 8,700 -2,100 Descending Houston Center
11:09AM 30.4992 -91.4750 71° East 297 342 6,200 -1,980 Descending Houston Center
11:10AM 30.5272 -91.3869 70° East 284 327 4,600 -1,560 Descending Houston Center